Location: 22
(39.7117°N, 89.5929°W)
Time: 01:00:19
(UTC-05:00)

ACS3 Solar Sail - Visible Passes

Search period start: 16 July 2024 00:00
Search period end: 26 July 2024 00:00
Orbit: 993 x 1023 km, 97.4° (Epoch: 15 July)

Date Brightness Start Highest point End Pass type
(mag) Time Alt. Az. Time Alt. Az. Time Alt. Az.
16 Jul 5.4 21:24:20 13° SE 21:29:29 41° ENE 21:35:15 10° N visible
16 Jul 6.3 23:09:40 16° SW 23:13:39 30° W 23:19:02 10° NNW visible
17 Jul 4.8 21:59:09 19° SSE 22:03:44 78° ENE 22:09:58 10° N visible
17 Jul 7.1 23:45:08 10° WSW 23:48:29 15° W 23:51:52 10° NW visible
18 Jul 6.2 20:49:51 10° ESE 20:54:32 23° ENE 20:59:14 10° NNE visible
18 Jul 5.3 22:33:58 21° S 22:38:10 56° W 22:44:18 10° NNW visible
19 Jul 5.4 21:23:27 13° SE 21:28:36 42° ENE 21:34:25 10° N visible
19 Jul 6.3 23:08:48 15° SW 23:12:48 29° W 23:18:07 10° NW visible
20 Jul 4.8 21:58:17 19° SSE 22:02:51 80° ENE 22:09:07 10° N visible
20 Jul 7.1 23:44:26 10° WSW 23:47:38 14° W 23:50:51 10° NW visible
21 Jul 6.1 20:48:52 10° ESE 20:53:38 24° ENE 20:58:26 10° NNE visible
21 Jul 5.4 22:33:07 20° S 22:37:18 54° W 22:43:26 10° NNW visible
22 Jul 5.3 21:22:36 13° SE 21:27:43 44° ENE 21:33:35 10° N visible
22 Jul 6.4 23:07:57 15° SW 23:11:57 28° W 23:17:13 10° NW visible
23 Jul 4.8 21:57:26 20° SSE 22:01:59 83° ENE 22:08:16 10° N visible
23 Jul 7.1 23:43:46 10° WSW 23:46:48 14° W 23:49:51 10° WNW visible
24 Jul 6.1 20:47:54 10° ESE 20:52:45 25° ENE 20:57:37 10° NNE visible
24 Jul 5.4 22:32:16 20° SSW 22:36:26 53° W 22:42:33 10° NNW visible
25 Jul 5.3 21:21:45 14° SE 21:26:50 45° ENE 21:32:44 10° N visible
25 Jul 6.4 23:07:06 15° SW 23:11:06 27° W 23:16:19 10° NW visible
